Regional Weather Roundup
Issued by NWS Jackson, KY

Home | Current Version | Previous Version | Text Only | Print | Product List | Glossary Off
Versions: 1 2 3 4 5 6 7 8 9 10 11 12 13 14 15 16 17 18 19 20 21 22 23 24 25 26 27 28 29 30 31 32 33 34 35 36 37 38 39 40 41 42 43 44 45 46 47 48 49 50

000
ASUS43 KJKL 181611
RWRJKL

EAST KENTUCKY HOURLY WEATHER ROUNDUP
NATIONAL WEATHER SERVICE JACKSON KY
1100 AM EST THU DEC 18 2014

NOTE: "FAIR" INDICATES FEW OR NO CLOUDS BELOW 12,000 FEET WITH
NO SIGNIFICANT WEATHER AND/OR OBSTRUCTIONS TO VISIBILITY.

* THESE REPORTS ARE NOT UNDER NWS QUALITY CONTROL AND MAY NOT
  REPORT WEATHER SUCH AS PRECIPITATION AND FOG.

KYZ079-080-083-085-087-088-110-112-115-119-120-181700
...EASTERN KENTUCKY...

CITY           SKY/WX    TMP DP  RH WIND       PRES   REMARKS
JACKSON        PTSUNNY   30  23  75 CALM      30.22S
LONDON         PTSUNNY   33  27  78 CALM      30.23R
SOMERSET*      CLOUDY    32  27  80 CALM      30.25F
MONTICELLO*    PTSUNNY   35  29  79 CALM      30.26F
MIDDLESBORO*   MOSUNNY   35  29  79 CALM      30.21F
HARLAN APT*    PTSUNNY   36  28  75 NE3       30.18F
BLACK MTN*       N/A     30  12  47 W2          N/A
BIG SANDY*     CLOUDY    32  25  75 S3        30.23F
MOREHEAD APT*  CLOUDY    30  23  74 NW6       30.28S WCI  24
$$

KYZ035-036-041-042-044-050-067-078-099-181700
...CENTRAL KENTUCKY...

CITY           SKY/WX    TMP DP  RH WIND       PRES   REMARKS
MT STERLING*   CLOUDY    30  25  80 CALM      30.27R
FLEMING/MASON* CLOUDY    28  21  74 NE6       30.27F WCI  22
DANVILLE*      CLOUDY    30  27  86 NE5       30.26F WCI  25
RICHMOND*      CLOUDY    30  23  74 CALM      30.26R
LEXINGTON      CLOUDY    31  23  72 VRB5      30.25F WCI  26
FRANKFORT      CLOUDY    30  22  72 CALM      30.28R
$$

KYZ091>093-OHZ055-061-077-WVZ005-015-034-035-042-181700
...SOUTHERN OHIO/WEST VIRGINIA...

CITY           SKY/WX    TMP DP  RH WIND       PRES   REMARKS
COVINGTON      CLOUDY    28  18  66 CALM      30.26F
COLUMBUS       CLOUDY    28  19  69 NW6       30.26F WCI  22
DAYTON         CLOUDY    28  20  71 W6        30.27S WCI  22
WILMINGTON     CLOUDY    26  17  68 W5        30.26S WCI  20
HUNTINGTON     CLOUDY    30  22  72 N6        30.25F WCI  24
CHARLESTON     CLOUDY    31  22  69 CALM      30.26R
PINEVILLE*       N/A     36  28  73 MISG      30.24F
BECKLEY        CLOUDY    28  20  71 NW5       30.16S WCI  23
BLUEFIELD      MOSUNNY   31  22  69 VRB3      30.14F
$$

VAZ002-007-008-TNZ017-027-036-066-071-181700
...SOUTHWEST VIRGINIA/EAST TENNESSEE...

CITY           SKY/WX    TMP DP  RH WIND       PRES   REMARKS
WISE*          MOSUNNY   36  27  69 CALM      30.15F
JONESVILLE*    MOSUNNY   36  28  75 CALM      30.22F
ABINGDON*      CLOUDY    35  29  79 CALM      30.18F
BRISTOL        CLOUDY    35  30  82 SE5       30.20F WCI  31
KNOXVILLE      PTSUNNY   38  30  73 NE6       30.19F WCI  33
CROSSVILLE     PTSUNNY   37  30  75 CALM      30.19R
NASHVILLE      CLOUDY    36  32  85 W5        30.28R FOG     WCI  32
$$

...KEY TO REMARKS...
VSB - VISIBILITY IN MILES
WCI - WIND CHILL INDEX
HX  - HEAT INDEX

$$


USA.gov is the U.S. government's official web portal to all federal, state and local government web resources and services.